owner,sensor,date,latitude,longitude,vertical_datum,direction_of_sea_water_velocity,sea_water_speed,upward_sea_water_velocity,qcFlag 
TABS,ioos:station:wmo:42049:1,2006-03-01T00:00:00Z,28.3507,-96.0058,2.0,239.4564059,33.64892866,-99999.0,'11111222,11111222,99999999' 
TABS,ioos:station:wmo:42049:1,2006-03-01T00:30:00Z,28.3507,-96.0058,2.0,242.4616637,38.71639059,-99999.0,'11111222,11111222,99999999' 
TABS,ioos:station:wmo:42049:1,2006-03-01T01:00:00Z,28.3507,-96.0058,2.0,240.7393787,41.94136502,-99999.0,'11111222,11111222,99999999' 
TABS,ioos:station:wmo:42049:1,2006-03-01T01:30:00Z,28.3507,-96.0058,2.0,243.7010256,44.23884718,-99999.0,'11111222,11111222,99999999' 
TABS,ioos:station:wmo:42049:1,2006-03-01T02:00:00Z,28.3507,-96.0058,2.0,244.5258611,42.50194466,-99999.0,'11111222,11111222,99999999' 
TABS,ioos:station:wmo:42049:1,2006-03-01T02:30:00Z,28.3507,-96.0058,2.0,246.2384817,39.58554534,-99999.0,'11111222,11111222,99999999' 
TABS,ioos:station:wmo:42049:1,2006-03-01T03:00:00Z,28.3507,-96.0058,2.0,245.1091071,37.80121956,-99999.0,'11111222,11111222,99999999' 
TABS,ioos:station:wmo:42049:1,2006-03-01T03:30:00Z,28.3507,-96.0058,2.0,242.8423201,37.63950717,-99999.0,'11111222,11111222,99999999' 
TABS,ioos:station:wmo:42049:1,2006-03-01T04:00:00Z,28.3507,-96.0058,2.0,245.1421852,34.5178577,-99999.0,'11111222,11111222,99999999' 
TABS,ioos:station:wmo:42049:1,2006-03-01T04:30:00Z,28.3507,-96.0058,2.0,249.5866694,36.5555755,-99999.0,'11111222,11111222,99999999' 
TABS,ioos:station:wmo:42049:1,2006-03-01T05:00:00Z,28.3507,-96.0058,2.0,248.8480422,30.29071475,-99999.0,'11111222,11111222,99999999' 
TABS,ioos:station:wmo:42049:1,2006-03-01T05:30:00Z,28.3507,-96.0058,2.0,247.661302,31.30960875,-99999.0,'11111222,11111222,99999999' 
TABS,ioos:station:wmo:42049:1,2006-03-01T06:00:00Z,28.3507,-96.0058,2.0,251.1250735,27.2027131,-99999.0,'11111222,11111222,99999999' 
TABS,ioos:station:wmo:42049:1,2006-03-01T06:30:00Z,28.3507,-96.0058,2.0,246.5639505,25.06792572,-99999.0,'11111222,11111222,99999999' 
TABS,ioos:station:wmo:42049:1,2006-03-01T07:00:00Z,28.3507,-96.0058,2.0,244.9299871,22.96329462,-99999.0,'11111222,11111222,99999999' 
TABS,ioos:station:wmo:42049:1,2006-03-01T07:30:00Z,28.3507,-96.0058,2.0,238.5550627,23.50127869,-99999.0,'11111222,11111222,99999999' 
TABS,ioos:station:wmo:42049:1,2006-03-01T08:00:00Z,28.3507,-96.0058,2.0,240.6327564,20.49346481,-99999.0,'11111222,11111222,99999999' 
TABS,ioos:station:wmo:42049:1,2006-03-01T08:30:00Z,28.3507,-96.0058,2.0,237.745894,19.80624649,-99999.0,'11111222,11111222,99999999' 
TABS,ioos:station:wmo:42049:1,2006-03-01T09:00:00Z,28.3507,-96.0058,2.0,242.6488851,19.89393124,-99999.0,'11111222,11111222,99999999' 
TABS,ioos:station:wmo:42049:1,2006-03-01T09:30:00Z,28.3507,-96.0058,2.0,236.9289786,19.49885125,-99999.0,'11111222,11111222,99999999' 
TABS,ioos:station:wmo:42049:1,2006-03-01T10:00:00Z,28.3507,-96.0058,2.0,236.820087,17.43214559,-99999.0,'11111222,11111222,99999999' 
TABS,ioos:station:wmo:42049:1,2006-03-01T10:30:00Z,28.3507,-96.0058,2.0,237.304173,16.45766083,-99999.0,'11111222,11111222,99999999' 
TABS,ioos:station:wmo:42049:1,2006-03-01T11:00:00Z,28.3507,-96.0058,2.0,225.5115905,20.57762863,-99999.0,'11111222,11111222,99999999' 
TABS,ioos:station:wmo:42049:1,2006-03-01T11:30:00Z,28.3507,-96.0058,2.0,224.1798026,20.2606836,-99999.0,'11111222,11111222,99999999' 
TABS,ioos:station:wmo:42049:1,2006-03-01T12:00:00Z,28.3507,-96.0058,2.0,222.396278,21.63858822,-99999.0,'11111222,11111222,99999999' 
TABS,ioos:station:wmo:42049:1,2006-03-01T12:30:00Z,28.3507,-96.0058,2.0,217.0508636,20.8621044,-99999.0,'11111222,11111222,99999999' 
TABS,ioos:station:wmo:42049:1,2006-03-01T13:00:00Z,28.3507,-96.0058,2.0,222.8545802,22.48053603,-99999.0,'11111222,11111222,99999999' 
TABS,ioos:station:wmo:42049:1,2006-03-01T13:30:00Z,28.3507,-96.0058,2.0,225.9191883,21.59075033,-99999.0,'11111222,11111222,99999999' 
TABS,ioos:station:wmo:42049:1,2006-03-01T14:00:00Z,28.3507,-96.0058,2.0,224.2201998,24.94903605,-99999.0,'11111222,11111222,99999999' 
TABS,ioos:station:wmo:42049:1,2006-03-01T14:30:00Z,28.3507,-96.0058,2.0,222.654161,27.12612947,-99999.0,'11111222,11111222,99999999' 
TABS,ioos:station:wmo:42049:1,2006-03-01T15:00:00Z,28.3507,-96.0058,2.0,223.0747701,25.68246873,-99999.0,'11111222,11111222,99999999' 
TABS,ioos:station:wmo:42049:1,2006-03-01T15:30:00Z,28.3507,-96.0058,2.0,220.1128081,24.56935083,-99999.0,'11111222,11111222,99999999' 
TABS,ioos:station:wmo:42049:1,2006-03-01T16:00:00Z,28.3507,-96.0058,2.0,225.9349709,23.82560178,-99999.0,'11111222,11111222,99999999' 
TABS,ioos:station:wmo:42049:1,2006-03-01T16:30:00Z,28.3507,-96.0058,2.0,221.6237518,25.09634436,-99999.0,'11111222,11111222,99999999' 
TABS,ioos:station:wmo:42049:1,2006-03-01T17:00:00Z,28.3507,-96.0058,2.0,219.9036828,24.59848166,-99999.0,'11111222,11111222,99999999' 
TABS,ioos:station:wmo:42049:1,2006-03-01T17:30:00Z,28.3507,-96.0058,2.0,219.8324493,21.59086149,-99999.0,'11111222,11111222,99999999' 
TABS,ioos:station:wmo:42049:1,2006-03-01T18:00:00Z,28.3507,-96.0058,2.0,217.0442324,20.99809753,-99999.0,'11111222,11111222,99999999' 
TABS,ioos:station:wmo:42049:1,2006-03-01T18:30:00Z,28.3507,-96.0058,2.0,214.9675108,23.25881553,-99999.0,'11111222,11111222,99999999' 
TABS,ioos:station:wmo:42049:1,2006-03-01T19:00:00Z,28.3507,-96.0058,2.0,211.2476407,22.13044961,-99999.0,'11111222,11111222,99999999' 
TABS,ioos:station:wmo:42049:1,2006-03-01T19:30:00Z,28.3507,-96.0058,2.0,212.7665187,22.89267568,-99999.0,'11111222,11111222,99999999' 
TABS,ioos:station:wmo:42049:1,2006-03-01T20:00:00Z,28.3507,-96.0058,2.0,215.4266223,25.25600919,-99999.0,'11111222,11111222,99999999' 
TABS,ioos:station:wmo:42049:1,2006-03-01T20:30:00Z,28.3507,-96.0058,2.0,209.7475422,24.16444702,-99999.0,'11111222,11111222,99999999' 
TABS,ioos:station:wmo:42049:1,2006-03-01T21:00:00Z,28.3507,-96.0058,2.0,206.3773452,25.97430461,-99999.0,'11111222,11111222,99999999' 
TABS,ioos:station:wmo:42049:1,2006-03-01T21:30:00Z,28.3507,-96.0058,2.0,208.9494054,24.39874177,-99999.0,'11111222,11111222,99999999' 
TABS,ioos:station:wmo:42049:1,2006-03-01T22:00:00Z,28.3507,-96.0058,2.0,208.4953615,26.28424623,-99999.0,'11111222,11111222,99999999' 
TABS,ioos:station:wmo:42049:1,2006-03-01T22:30:00Z,28.3507,-96.0058,2.0,209.2849244,29.68370765,-99999.0,'11111222,11111222,99999999' 
TABS,ioos:station:wmo:42049:1,2006-03-01T23:00:00Z,28.3507,-96.0058,2.0,213.5486563,29.27716516,-99999.0,'11111222,11111222,99999999' 
TABS,ioos:station:wmo:42049:1,2006-03-01T23:30:00Z,28.3507,-96.0058,2.0,213.563942,27.78222633,-99999.0,'11111222,11111222,99999999' 
TABS,ioos:station:wmo:42049:1,2006-03-02T00:00:00Z,28.3507,-96.0058,2.0,219.9236251,27.89161343,-99999.0,'11111222,11111222,99999999' 
TABS,ioos:station:wmo:42049:1,2006-03-02T00:30:00Z,28.3507,-96.0058,2.0,220.4358107,28.97009838,-99999.0,'11111222,11111222,99999999' 
TABS,ioos:station:wmo:42049:1,2006-03-02T01:00:00Z,28.3507,-96.0058,2.0,219.3717964,32.66314284,-99999.0,'11111222,11111222,99999999' 
TABS,ioos:station:wmo:42049:1,2006-03-02T01:30:00Z,28.3507,-96.0058,2.0,219.2878737,32.75316931,-99999.0,'11111222,11111222,99999999' 
TABS,ioos:station:wmo:42049:1,2006-03-02T02:00:00Z,28.3507,-96.0058,2.0,217.8945977,35.32965327,-99999.0,'11111222,11111222,99999999' 
TABS,ioos:station:wmo:42049:1,2006-03-02T02:30:00Z,28.3507,-96.0058,2.0,213.2483364,34.19828212,-99999.0,'11111222,11111222,99999999' 
TABS,ioos:station:wmo:42049:1,2006-03-02T03:00:00Z,28.3507,-96.0058,2.0,213.7262375,34.86846139,-99999.0,'11111222,11111222,99999999' 
TABS,ioos:station:wmo:42049:1,2006-03-02T03:30:00Z,28.3507,-96.0058,2.0,214.1649181,33.77962996,-99999.0,'11111222,11111222,99999999' 
TABS,ioos:station:wmo:42049:1,2006-03-02T04:00:00Z,28.3507,-96.0058,2.0,217.0216723,32.40211413,-99999.0,'11111222,11111222,99999999' 
TABS,ioos:station:wmo:42049:1,2006-03-02T04:30:00Z,28.3507,-96.0058,2.0,213.1185545,30.60155715,-99999.0,'11111222,11111222,99999999' 
TABS,ioos:station:wmo:42049:1,2006-03-02T05:00:00Z,28.3507,-96.0058,2.0,214.6692556,25.47278155,-99999.0,'11111222,11111222,99999999' 
TABS,ioos:station:wmo:42049:1,2006-03-02T05:30:00Z,28.3507,-96.0058,2.0,212.2585578,22.76367721,-99999.0,'11111222,11111222,99999999' 
TABS,ioos:station:wmo:42049:1,2006-03-02T06:00:00Z,28.3507,-96.0058,2.0,217.9583912,16.20892655,-99999.0,'11111222,11111222,99999999' 
TABS,ioos:station:wmo:42049:1,2006-03-02T06:30:00Z,28.3507,-96.0058,2.0,207.3144722,12.98819464,-99999.0,'11111222,11111222,99999999' 
TABS,ioos:station:wmo:42049:1,2006-03-02T07:00:00Z,28.3507,-96.0058,2.0,196.7887216,11.00926882,-99999.0,'11111222,11111222,99999999' 
TABS,ioos:station:wmo:42049:1,2006-03-02T07:30:00Z,28.3507,-96.0058,2.0,195.852821,11.93390129,-99999.0,'11111222,11111222,99999999' 
TABS,ioos:station:wmo:42049:1,2006-03-02T08:00:00Z,28.3507,-96.0058,2.0,171.9277565,6.979147512,-99999.0,'11133222,11111222,99999999' 
TABS,ioos:station:wmo:42049:1,2006-03-02T08:30:00Z,28.3507,-96.0058,2.0,168.7365792,7.219037332,-99999.0,'11133222,11111222,99999999' 
TABS,ioos:station:wmo:42049:1,2006-03-02T09:00:00Z,28.3507,-96.0058,2.0,145.652608,6.770561277,-99999.0,'11133222,11111222,99999999' 
TABS,ioos:station:wmo:42049:1,2006-03-02T09:30:00Z,28.3507,-96.0058,2.0,144.77468,7.24698558,-99999.0,'11133222,11111222,99999999' 
TABS,ioos:station:wmo:42049:1,2006-03-02T10:00:00Z,28.3507,-96.0058,2.0,135.1777205,11.39154511,-99999.0,'11111222,11111222,99999999' 
TABS,ioos:station:wmo:42049:1,2006-03-02T10:30:00Z,28.3507,-96.0058,2.0,134.5725686,12.32521399,-99999.0,'11111222,11111222,99999999' 
TABS,ioos:station:wmo:42049:1,2006-03-02T11:00:00Z,28.3507,-96.0058,2.0,135.4540976,12.48789814,-99999.0,'11111222,11111222,99999999' 
TABS,ioos:station:wmo:42049:1,2006-03-02T11:30:00Z,28.3507,-96.0058,2.0,135.363051,14.5030514,-99999.0,'11111222,11111222,99999999' 
TABS,ioos:station:wmo:42049:1,2006-03-02T12:00:00Z,28.3507,-96.0058,2.0,143.8995867,14.44330295,-99999.0,'11111222,11111222,99999999' 
TABS,ioos:station:wmo:42049:1,2006-03-02T12:30:00Z,28.3507,-96.0058,2.0,146.9642628,14.32606715,-99999.0,'11111222,11111222,99999999' 
TABS,ioos:station:wmo:42049:1,2006-03-02T13:00:00Z,28.3507,-96.0058,2.0,144.4949072,16.2886218,-99999.0,'11111222,11111222,99999999' 
TABS,ioos:station:wmo:42049:1,2006-03-02T13:30:00Z,28.3507,-96.0058,2.0,139.765492,17.10748667,-99999.0,'11111222,11111222,99999999' 
TABS,ioos:station:wmo:42049:1,2006-03-02T14:00:00Z,28.3507,-96.0058,2.0,154.4333488,17.19350168,-99999.0,'11111222,11111222,99999999' 
TABS,ioos:station:wmo:42049:1,2006-03-02T14:30:00Z,28.3507,-96.0058,2.0,146.1530221,11.14951568,-99999.0,'11111222,11111222,99999999' 
TABS,ioos:station:wmo:42049:1,2006-03-02T15:00:00Z,28.3507,-96.0058,2.0,160.1135908,10.61284599,-99999.0,'11111222,11111222,99999999' 
TABS,ioos:station:wmo:42049:1,2006-03-02T15:30:00Z,28.3507,-96.0058,2.0,160.4151256,7.249399975,-99999.0,'11133222,11111222,99999999' 
TABS,ioos:station:wmo:42049:1,2006-03-02T16:00:00Z,28.3507,-96.0058,2.0,197.2151978,12.33251394,-99999.0,'11111222,11111222,99999999' 
TABS,ioos:station:wmo:42049:1,2006-03-02T16:30:00Z,28.3507,-96.0058,2.0,214.9458747,11.26034635,-99999.0,'11111222,11111222,99999999' 
TABS,ioos:station:wmo:42049:1,2006-03-02T17:00:00Z,28.3507,-96.0058,2.0,235.5414771,10.55134589,-99999.0,'11111222,11111222,99999999' 
TABS,ioos:station:wmo:42049:1,2006-03-02T17:30:00Z,28.3507,-96.0058,2.0,236.299739,16.13068194,-99999.0,'11111222,11111222,99999999' 
TABS,ioos:station:wmo:42049:1,2006-03-02T18:00:00Z,28.3507,-96.0058,2.0,264.0462773,22.07907833,-99999.0,'11111222,11111222,99999999' 
TABS,ioos:station:wmo:42049:1,2006-03-02T18:30:00Z,28.3507,-96.0058,2.0,267.7814903,25.57916535,-99999.0,'11111222,11111222,99999999' 
TABS,ioos:station:wmo:42049:1,2006-03-02T19:00:00Z,28.3507,-96.0058,2.0,276.2742364,29.55701778,-99999.0,'11111222,11111222,99999999' 
TABS,ioos:station:wmo:42049:1,2006-03-02T19:30:00Z,28.3507,-96.0058,2.0,280.0367312,35.11738601,-99999.0,'11111222,11111222,99999999' 
TABS,ioos:station:wmo:42049:1,2006-03-02T20:00:00Z,28.3507,-96.0058,2.0,283.1772434,38.64754843,-99999.0,'11111222,11111222,99999999' 
TABS,ioos:station:wmo:42049:1,2006-03-02T20:30:00Z,28.3507,-96.0058,2.0,286.9614646,44.01449307,-99999.0,'11111222,11111222,99999999' 
TABS,ioos:station:wmo:42049:1,2006-03-02T21:00:00Z,28.3507,-96.0058,2.0,284.8481958,48.11661875,-99999.0,'11111222,11111222,99999999' 
TABS,ioos:station:wmo:42049:1,2006-03-02T21:30:00Z,28.3507,-96.0058,2.0,284.7307639,46.44655531,-99999.0,'11111222,11111222,99999999' 
TABS,ioos:station:wmo:42049:1,2006-03-02T22:00:00Z,28.3507,-96.0058,2.0,284.851716,46.54487082,-99999.0,'11111222,11111222,99999999' 
TABS,ioos:station:wmo:42049:1,2006-03-02T22:30:00Z,28.3507,-96.0058,2.0,283.6084069,44.45802177,-99999.0,'11111222,11111222,99999999' 
TABS,ioos:station:wmo:42049:1,2006-03-02T23:00:00Z,28.3507,-96.0058,2.0,280.0007935,43.76494031,-99999.0,'11111222,11111222,99999999' 
TABS,ioos:station:wmo:42049:1,2006-03-02T23:30:00Z,28.3507,-96.0058,2.0,279.430254,43.51806292,-99999.0,'11111222,11111222,99999999' 
TABS,ioos:station:wmo:42049:1,2006-03-03T00:00:00Z,28.3507,-96.0058,2.0,279.9883335,41.39740692,-99999.0,'11111222,11111222,99999999' 
TABS,ioos:station:wmo:42049:1,2006-03-03T00:30:00Z,28.3507,-96.0058,2.0,280.4718329,40.60627168,-99999.0,'11111222,11111222,99999999' 
TABS,ioos:station:wmo:42049:1,2006-03-03T01:00:00Z,28.3507,-96.0058,2.0,279.2050251,35.82125766,-99999.0,'11111222,11111222,99999999' 
TABS,ioos:station:wmo:42049:1,2006-03-03T01:30:00Z,28.3507,-96.0058,2.0,278.8786644,36.93250736,-99999.0,'11111222,11111222,99999999' 
TABS,ioos:station:wmo:42049:1,2006-03-03T02:00:00Z,28.3507,-96.0058,2.0,276.8614978,38.50575152,-99999.0,'11111222,11111222,99999999' 
TABS,ioos:station:wmo:42049:1,2006-03-03T02:30:00Z,28.3507,-96.0058,2.0,272.0883999,36.50423674,-99999.0,'11111222,11111222,99999999' 
TABS,ioos:station:wmo:42049:1,2006-03-03T03:00:00Z,28.3507,-96.0058,2.0,268.9374959,36.14621004,-99999.0,'11111222,11111222,99999999' 
TABS,ioos:station:wmo:42049:1,2006-03-03T03:30:00Z,28.3507,-96.0058,2.0,274.0158547,39.55710429,-99999.0,'11111222,11111222,99999999' 
TABS,ioos:station:wmo:42049:1,2006-03-03T04:00:00Z,28.3507,-96.0058,2.0,268.7100706,32.43821512,-99999.0,'11111222,11111222,99999999' 
TABS,ioos:station:wmo:42049:1,2006-03-03T04:30:00Z,28.3507,-96.0058,2.0,268.9567077,41.75691679,-99999.0,'11111222,11111222,99999999' 
TABS,ioos:station:wmo:42049:1,2006-03-03T05:00:00Z,28.3507,-96.0058,2.0,264.6348297,39.89475279,-99999.0,'11111222,11111222,99999999' 
TABS,ioos:station:wmo:42049:1,2006-03-03T05:30:00Z,28.3507,-96.0058,2.0,262.9887997,42.93098764,-99999.0,'11111222,11111222,99999999' 
TABS,ioos:station:wmo:42049:1,2006-03-03T06:00:00Z,28.3507,-96.0058,2.0,262.4827984,44.26034907,-99999.0,'11111222,11111222,99999999' 
TABS,ioos:station:wmo:42049:1,2006-03-03T06:30:00Z,28.3507,-96.0058,2.0,259.9199278,40.73878987,-99999.0,'11111222,11111222,99999999' 
TABS,ioos:station:wmo:42049:1,2006-03-03T07:00:00Z,28.3507,-96.0058,2.0,259.3201099,41.17315266,-99999.0,'11111222,11111222,99999999' 
TABS,ioos:station:wmo:42049:1,2006-03-03T07:30:00Z,28.3507,-96.0058,2.0,257.4115168,40.88273597,-99999.0,'11111222,11111222,99999999' 
TABS,ioos:station:wmo:42049:1,2006-03-03T08:00:00Z,28.3507,-96.0058,2.0,257.6062867,41.28198154,-99999.0,'11111222,11111222,99999999' 
TABS,ioos:station:wmo:42049:1,2006-03-03T08:30:00Z,28.3507,-96.0058,2.0,252.867514,41.58521492,-99999.0,'11111222,11111222,99999999' 
TABS,ioos:station:wmo:42049:1,2006-03-03T09:00:00Z,28.3507,-96.0058,2.0,257.5856448,42.74948655,-99999.0,'11111222,11111222,99999999' 
TABS,ioos:station:wmo:42049:1,2006-03-03T09:30:00Z,28.3507,-96.0058,2.0,249.4600813,40.64371046,-99999.0,'11111222,11111222,99999999' 
TABS,ioos:station:wmo:42049:1,2006-03-03T10:00:00Z,28.3507,-96.0058,2.0,247.8455008,38.61050634,-99999.0,'11111222,11111222,99999999' 
TABS,ioos:station:wmo:42049:1,2006-03-03T10:30:00Z,28.3507,-96.0058,2.0,246.0702955,38.60854439,-99999.0,'11111222,11111222,99999999' 
TABS,ioos:station:wmo:42049:1,2006-03-03T11:00:00Z,28.3507,-96.0058,2.0,238.2651912,40.79977451,-99999.0,'11111222,11111222,99999999' 
TABS,ioos:station:wmo:42049:1,2006-03-03T11:30:00Z,28.3507,-96.0058,2.0,237.9431287,40.37639533,-99999.0,'11111222,11111222,99999999' 
TABS,ioos:station:wmo:42049:1,2006-03-03T12:00:00Z,28.3507,-96.0058,2.0,235.0407425,39.70408165,-99999.0,'11111222,11111222,99999999' 
TABS,ioos:station:wmo:42049:1,2006-03-03T12:30:00Z,28.3507,-96.0058,2.0,233.3508842,39.3862933,-99999.0,'11111222,11111222,99999999' 
TABS,ioos:station:wmo:42049:1,2006-03-03T13:00:00Z,28.3507,-96.0058,2.0,229.1893266,37.45654682,-99999.0,'11111222,11111222,99999999' 
TABS,ioos:station:wmo:42049:1,2006-03-03T13:30:00Z,28.3507,-96.0058,2.0,228.0614175,36.53886698,-99999.0,'11111222,11111222,99999999' 
TABS,ioos:station:wmo:42049:1,2006-03-03T14:00:00Z,28.3507,-96.0058,2.0,225.8344232,39.80019347,-99999.0,'11111222,11111222,99999999' 
TABS,ioos:station:wmo:42049:1,2006-03-03T14:30:00Z,28.3507,-96.0058,2.0,228.8512147,38.8442544,-99999.0,'11111222,11111222,99999999' 
TABS,ioos:station:wmo:42049:1,2006-03-03T15:00:00Z,28.3507,-96.0058,2.0,227.5021582,43.56396791,-99999.0,'11111222,11111222,99999999' 
TABS,ioos:station:wmo:42049:1,2006-03-03T15:30:00Z,28.3507,-96.0058,2.0,235.0542304,48.35927626,-99999.0,'11111222,11111222,99999999' 
TABS,ioos:station:wmo:42049:1,2006-03-03T16:00:00Z,28.3507,-96.0058,2.0,238.2516513,46.48561605,-99999.0,'11111222,11111222,99999999' 
TABS,ioos:station:wmo:42049:1,2006-03-03T16:30:00Z,28.3507,-96.0058,2.0,238.0508142,46.18625012,-99999.0,'11111222,11111222,99999999' 
TABS,ioos:station:wmo:42049:1,2006-03-03T17:00:00Z,28.3507,-96.0058,2.0,242.0640334,45.06071682,-99999.0,'11111222,11111222,99999999' 
TABS,ioos:station:wmo:42049:1,2006-03-03T17:30:00Z,28.3507,-96.0058,2.0,243.3889997,44.96286913,-99999.0,'11111222,11111222,99999999' 
TABS,ioos:station:wmo:42049:1,2006-03-03T18:00:00Z,28.3507,-96.0058,2.0,244.0205356,47.6665176,-99999.0,'11111222,11111222,99999999' 
TABS,ioos:station:wmo:42049:1,2006-03-03T18:30:00Z,28.3507,-96.0058,2.0,243.4504819,48.37062435,-99999.0,'11111222,11111222,99999999' 
TABS,ioos:station:wmo:42049:1,2006-03-03T19:00:00Z,28.3507,-96.0058,2.0,244.2281649,49.72597711,-99999.0,'11111222,11111222,99999999' 
TABS,ioos:station:wmo:42049:1,2006-03-03T19:30:00Z,28.3507,-96.0058,2.0,247.4045784,49.73769697,-99999.0,'11111222,11111222,99999999' 
TABS,ioos:station:wmo:42049:1,2006-03-03T20:00:00Z,28.3507,-96.0058,2.0,248.1865585,54.73927292,-99999.0,'11111222,11111222,99999999' 
TABS,ioos:station:wmo:42049:1,2006-03-03T20:30:00Z,28.3507,-96.0058,2.0,252.0614903,56.52783827,-99999.0,'11111222,11111222,99999999' 
TABS,ioos:station:wmo:42049:1,2006-03-03T21:00:00Z,28.3507,-96.0058,2.0,251.1682267,55.30007324,-99999.0,'11111222,11111222,99999999' 
TABS,ioos:station:wmo:42049:1,2006-03-03T21:30:00Z,28.3507,-96.0058,2.0,253.1978219,51.3730951,-99999.0,'11111222,11111222,99999999' 
TABS,ioos:station:wmo:42049:1,2006-03-03T22:00:00Z,28.3507,-96.0058,2.0,251.5287963,50.50158413,-99999.0,'11111222,11111222,99999999' 
TABS,ioos:station:wmo:42049:1,2006-03-03T22:30:00Z,28.3507,-96.0058,2.0,255.4996495,47.04860147,-99999.0,'11111222,11111222,99999999' 
TABS,ioos:station:wmo:42049:1,2006-03-03T23:00:00Z,28.3507,-96.0058,2.0,253.4428649,46.6022242,-99999.0,'11111222,11111222,99999999' 
TABS,ioos:station:wmo:42049:1,2006-03-03T23:30:00Z,28.3507,-96.0058,2.0,255.1700453,47.47119758,-99999.0,'11111222,11111222,99999999' 
TABS,ioos:station:wmo:42049:1,2006-03-04T00:00:00Z,28.3507,-96.0058,2.0,256.92806,49.12285212,-99999.0,'11111222,11111222,99999999' 
TABS,ioos:station:wmo:42049:1,2006-03-04T00:30:00Z,28.3507,-96.0058,2.0,254.8993119,44.14424538,-99999.0,'11111222,11111222,99999999' 
TABS,ioos:station:wmo:42049:1,2006-03-04T01:00:00Z,28.3507,-96.0058,2.0,255.6683672,47.10589347,-99999.0,'11111222,11111222,99999999' 
TABS,ioos:station:wmo:42049:1,2006-03-04T01:30:00Z,28.3507,-96.0058,2.0,253.3850183,50.57136739,-99999.0,'11111222,11111222,99999999' 
TABS,ioos:station:wmo:42049:1,2006-03-04T02:00:00Z,28.3507,-96.0058,2.0,253.8673033,51.78932902,-99999.0,'11111222,11111222,99999999' 
TABS,ioos:station:wmo:42049:1,2006-03-04T02:30:00Z,28.3507,-96.0058,2.0,254.761136,48.31888244,-99999.0,'11111222,11111222,99999999' 
TABS,ioos:station:wmo:42049:1,2006-03-04T03:00:00Z,28.3507,-96.0058,2.0,253.1757254,46.22863723,-99999.0,'11111222,11111222,99999999' 
TABS,ioos:station:wmo:42049:1,2006-03-04T03:30:00Z,28.3507,-96.0058,2.0,250.532472,39.84800246,-99999.0,'11111222,11111222,99999999' 
TABS,ioos:station:wmo:42049:1,2006-03-04T04:00:00Z,28.3507,-96.0058,2.0,250.3108087,40.75254348,-99999.0,'11111222,11111222,99999999' 
TABS,ioos:station:wmo:42049:1,2006-03-04T04:30:00Z,28.3507,-96.0058,2.0,242.9248915,38.20696926,-99999.0,'11111222,11111222,99999999' 
TABS,ioos:station:wmo:42049:1,2006-03-04T05:00:00Z,28.3507,-96.0058,2.0,241.6532079,35.67805488,-99999.0,'11111222,11111222,99999999' 
TABS,ioos:station:wmo:42049:1,2006-03-04T05:30:00Z,28.3507,-96.0058,2.0,241.0464909,34.55937644,-99999.0,'11111222,11111222,99999999' 
TABS,ioos:station:wmo:42049:1,2006-03-04T06:00:00Z,28.3507,-96.0058,2.0,235.7619903,31.92168072,-99999.0,'11111222,11111222,99999999' 
TABS,ioos:station:wmo:42049:1,2006-03-04T06:30:00Z,28.3507,-96.0058,2.0,229.1669177,28.99733091,-99999.0,'11111222,11111222,99999999' 
TABS,ioos:station:wmo:42049:1,2006-03-04T07:00:00Z,28.3507,-96.0058,2.0,228.5539355,30.9105241,-99999.0,'11111222,11111222,99999999' 
TABS,ioos:station:wmo:42049:1,2006-03-04T07:30:00Z,28.3507,-96.0058,2.0,224.0816878,31.33592347,-99999.0,'11111222,11111222,99999999' 
TABS,ioos:station:wmo:42049:1,2006-03-04T08:00:00Z,28.3507,-96.0058,2.0,222.5199263,32.35922434,-99999.0,'11111222,11111222,99999999' 
TABS,ioos:station:wmo:42049:1,2006-03-04T08:30:00Z,28.3507,-96.0058,2.0,224.9050591,34.25229919,-99999.0,'11111222,11111222,99999999' 
TABS,ioos:station:wmo:42049:1,2006-03-04T09:00:00Z,28.3507,-96.0058,2.0,226.5064773,33.34454378,-99999.0,'11111222,11111222,99999999' 
TABS,ioos:station:wmo:42049:1,2006-03-04T09:30:00Z,28.3507,-96.0058,2.0,224.8824675,34.5634518,-99999.0,'11111222,11111222,99999999' 
TABS,ioos:station:wmo:42049:1,2006-03-04T10:00:00Z,28.3507,-96.0058,2.0,226.2769944,33.62421151,-99999.0,'11111222,11111222,99999999' 
TABS,ioos:station:wmo:42049:1,2006-03-04T10:30:00Z,28.3507,-96.0058,2.0,228.392501,34.29114317,-99999.0,'11111222,11111222,99999999' 
TABS,ioos:station:wmo:42049:1,2006-03-04T11:00:00Z,28.3507,-96.0058,2.0,226.0216389,33.6989985,-99999.0,'11111222,11111222,99999999' 
TABS,ioos:station:wmo:42049:1,2006-03-04T11:30:00Z,28.3507,-96.0058,2.0,229.8425228,35.68070907,-99999.0,'11111222,11111222,99999999' 
TABS,ioos:station:wmo:42049:1,2006-03-04T12:00:00Z,28.3507,-96.0058,2.0,230.7031522,34.01049838,-99999.0,'11111222,11111222,99999999' 
TABS,ioos:station:wmo:42049:1,2006-03-04T12:30:00Z,28.3507,-96.0058,2.0,231.7354753,30.98717477,-99999.0,'11111222,11111222,99999999' 
TABS,ioos:station:wmo:42049:1,2006-03-04T13:00:00Z,28.3507,-96.0058,2.0,229.5249886,31.90512498,-99999.0,'11111222,11111222,99999999' 
TABS,ioos:station:wmo:42049:1,2006-03-04T13:30:00Z,28.3507,-96.0058,2.0,233.0475901,32.07203299,-99999.0,'11111222,11111222,99999999' 
TABS,ioos:station:wmo:42049:1,2006-03-04T14:00:00Z,28.3507,-96.0058,2.0,233.1633399,37.54600645,-99999.0,'11111222,11111222,99999999' 
TABS,ioos:station:wmo:42049:1,2006-03-04T14:30:00Z,28.3507,-96.0058,2.0,240.4661135,37.9970591,-99999.0,'11111222,11111222,99999999' 
TABS,ioos:station:wmo:42049:1,2006-03-04T15:00:00Z,28.3507,-96.0058,2.0,240.4238331,39.93315665,-99999.0,'11111222,11111222,99999999' 
TABS,ioos:station:wmo:42049:1,2006-03-04T15:30:00Z,28.3507,-96.0058,2.0,242.8163573,44.34828182,-99999.0,'11111222,11111222,99999999' 
TABS,ioos:station:wmo:42049:1,2006-03-04T16:00:00Z,28.3507,-96.0058,2.0,243.8179345,42.11057468,-99999.0,'11111222,11111222,99999999' 